Current weather by "City, St" or "zip code"  
 

Current Conditions: Brandywine Regional Airport, PA

Fog/Mist


68.0 F

Last Updated on May 21 2022, 4:15 am EDT
Humidity: 94%
Wind Speed: N 0.0 mph
Barometer 29.96 in
Dewpoint: 66.2 F
Visibility: 1.25 mi
Precip: --
Heat Index: NA
Wind Chill: NA
Current conditions at:

Brandywine Regional Airport, PA (KOQN)

Lat: 39.99011 Lon: 75.5819

Local Radar Image active severe weather and emergency alerts image image weather storm and storm spotter reports image weather observation monitoring service image
Local
Radar
Active
Alerts
Storm Reports Obs
Monitoring

Sign-up For Email & Text Message Weather Alert Notification Services



Advertise Here

Observation History for Brandywine Regional Airport, PA


Time Wind
(mph)
Vis
(mi)
Weather Precip (in) Temperature (F) Relative
Humidity
Wind
Chill
(F)
Heat
Index
(F)
Pressure
Air Dwpt altimeter
(in)
sea level
(mb)
Rmks
4:15 am EDT N 0.0 1.25 Fog/Mist -- 68.0 66.2 94% NA NA 29.96 M
3:55 am EDT N 0.0 2.00 Fog/Mist -- 68.0 66.2 94% NA NA 29.95 M
3:35 am EDT N 0.0 4.00 Fog/Mist -- 68.0 66.2 94% NA NA 29.95 M
3:15 am EDT N 0.0 4.00 Fog/Mist -- 68.0 66.2 94% NA NA 29.94 M
2:55 am EDT N 0.0 4.00 Fog/Mist -- 68.0 66.2 94% NA NA 29.93 M
2:35 am EDT N 0.0 4.00 Fog/Mist -- 68.0 68.0 100% NA NA 29.93 M
2:15 am EDT N 0.0 4.00 Fog/Mist -- 70.0 68.0 94% NA NA 29.93 M
1:55 am EDT N 0.0 4.00 Fog/Mist -- 70.0 68.0 94% NA NA 29.92 M
1:15 am EDT N 0.0 4.00 Fog/Mist -- 70.0 68.0 94% NA NA 29.92 M
12:55 am EDT N 0.0 4.00 Fog/Mist -- 70.0 68.0 94% NA NA 29.92 M
12:35 am EDT N 0.0 4.00 Fog/Mist -- 70.0 68.0 94% NA NA 29.92 M
12:15 am EDT N 0.0 5.00 Fog/Mist -- 70.0 68.0 94% NA NA 29.92 M
11:55 pm EDT N 0.0 5.00 Fog/Mist -- 70.0 68.0 94% NA NA 29.92 M
11:15 pm EDT N 0.0 5.00 Fog/Mist -- 70.0 68.0 94% NA NA 29.92 M
10:55 pm EDT E 3.5 7.00 Fair -- 70.0 68.0 94% NA NA 29.92 M
10:15 pm EDT N 0.0 7.00 Fair -- 72.0 69.8 94% NA NA 29.92 M
9:55 pm EDT N 0.0 7.00 Fair -- 72.0 69.8 94% NA NA 29.91 M
9:35 pm EDT E 3.5 7.00 Fair -- 72.0 68.0 88% NA NA 29.91 M
9:15 pm EDT N 0.0 10.00 Fair -- 72.0 69.8 94% NA NA 29.90 M
8:55 pm EDT E 3.5 10.00 Fair -- 72.0 69.8 94% NA NA 29.90 M
8:35 pm EDT N 0.0 10.00 Fair -- 72.0 69.8 94% NA NA 29.89 M
8:15 pm EDT N 0.0 10.00 Fair -- 73.0 69.8 89% NA NA 29.89 M
7:55 pm EDT E 3.5 10.00 Fair -- 73.0 69.8 89% NA NA 29.89 M
5:55 pm EDT E 3.5 10.00 Fair -- 73.0 68.0 83% NA NA 29.88 M

Regional Weather Observation


Pottstown, Pottstown Limerick Airport, PA (KPTW)

Fog
64.0 F

Philadelphia - Wings Field Airport, PA (KLOM)

Fog
66.0 F

Quakertown Airport, PA (KUKT)

Fog
64.0 F

Pennridge Airport, PA (KCKZ)

Fog
64.0 F

Chester County Airport, PA (KMQS)

Fog/Mist
66.0 F

Allentown Queen City Municipal Airport, PA (KXLL)

Fog
64.0 F

Advertise Here


Advertise Here